OPS 4682 DEB, 38440

Orbit data source: Space-Track

OPS 4682 DEB, 38440 is space debris in LEO originally from a launch on Sat, 03 Apr 1965 UTC launched from the Air Force Western Test Range (AFWTR). Debris objects in space refer to the collection of defunct objects orbiting the Earth. Examples of debris include non-operational satellites, rocket bodies, and fragments generated from explosions, collisions, or faulty payload assembly.

Loading next visibility...
Identifier
38440, 1965-027EV
Orbit
LEO
Country
Flag of USUS
Related business
Manufacturer
Unknown
Mission
Spacecraft
Bus & Motor
Unknown
Mass
Unknown
Launch date (UTC)
1965-04-03 (61 years ago)
Launch vehicle
Unknown
Launch site
Air Force Western Test Range (AFWTR)
Object type
Payload
Rocket body
Debris
Shape & HBR
Unknown shape, 0.1 m
Radar Cross Section
Small (<0.1 m²)

Expand to show TLE details & history
Last TLE update: 2 days ago

TLE from 2 days ago
0 OPS 4682 DEB
1 38440U 65027EV  25351.81481085  .00000714  00000-0  23791-2 0  9996
2 38440  90.2506  13.0110 0039258 142.4436 217.9439 12.98834496593411
Epoch: 2025-12-17T19:33Z
TLE epoch observation values (Epoch: 2025-12-17T19:33:19.657Z)
Latitude
-0.00004°
Longitude
-7.00017°
Altitude
1,293.255 km
Speed
7.198 km/s
True Right ascension
00h 52m 02s
True Declination
0° 00' 00"
Sunlit
Object was in daylight at epoch
Visualization orbit readout
Latitude
Unknown
Longitude
Unknown
Altitude
Unknown
Speed
Unknown
Apparent Right ascension
Unknown
Apparent Declination
Unknown
Sunlit
N/A
Visualization observer readout
Local Sidereal Time
10:52:26
Azimuth
Unknown
Elevation
Unknown
Doppler factor
Unknown
Orbital elements
Apogee altitude
1,293.786 km
Perigee altitude
1,233.785 km
Semi-major axis
7,641.922 km
Eccentricity
0.00393
Inclination
90.2506°
RAAN
13.011°
Arg. of periapsis
142.4436°
True anomaly
217.66835°
Mean anomaly
217.9439°
Eccentric anomaly
217.80602°
Mean motion
3.24892 °/min
Orbital period
110.81 mins
BSTAR
0.0023791
Loading maneuver chart data...
Computing Atmospheric mass density...
Loading historical data...
Loading historical data...
Loading historical data...
Loading historical data...
Loading historical data...
Loading historical data...
Loading historical data...

Documentation

Showing up to 5 results
|